Weather History for Hanbury River, NT

Change the Weather History Date:

Sunday, November 10, 2013

  Actual Average Record
Temperature  
Mean Temperature -14 °F -  
Max Temperature -3 °F - - ()
Min Temperature -25 °F - - ()
Degree Days  
Heating Degree Days 79    
Moisture  
Dew Point -18 °F    
Average Humidity 79    
Maximum Humidity 86    
Minimum Humidity 66    
Precipitation  
Precipitation 0.00 in - - ()
Sea Level Pressure  
Sea Level Pressure 30.34 in    
Wind  
Wind Speed 7 mph ()    
Max Wind Speed 20 mph    
Max Gust Speed -    
T = Trace of Precipitation, MM = Missing Value Source: Averaged Metar Reports

Daily Weather History Graph

Daily Weather History Graph

Search for Another Location

Airport:

Trip Planner

Search our weather history database for the weather conditions in past years. The results will help you decide how hot, cold, wet, or windy it might be!

Date:

Astronomy

Nov. 10, 2013 Rise Set
Actual Time 8:09 AM MST 3:18 PM MST
Civil Twilight 7:13 AM MST 4:13 PM MST
Nautical Twilight 6:15 AM MST 5:11 PM MST
Astronomical Twilight 5:21 AM MST 6:06 PM MST
Moon 1:35 PM MST (11/10) 11:58 PM MST (11/10)
Length of Visible Light 9h 00m
Length of Day
7h 08m
First Quarter, 56% of the Moon is Illuminated
Nov 10
First Quarter
Nov 17
Full
Nov 25
Last Quarter
Dec 2
New
Dec 9
First Quarter

Hourly Weather History & Observations

Time (MST) Temp. Windchill Dew Point Humidity Pressure Visibility Wind Dir Wind Speed Gust Speed Precip Events Conditions
12:00 AM -23.4 °F - -29.2 °F 74% 30.45 in - WSW 1.2 mph - N/A   Unknown
1:00 AM -22.7 °F -41.8 °F -28.3 °F 75% 30.46 in - WNW 8.1 mph - N/A   Unknown
2:00 AM -21.6 °F -35.2 °F -26.9 °F 77% 30.46 in - WNW 4.6 mph - N/A   Unknown
3:00 AM -20.7 °F -36.2 °F -26.1 °F 76% 30.46 in - WNW 5.8 mph - N/A   Unknown
4:00 AM -19.8 °F -35.1 °F -25.1 °F 77% 30.45 in - West 5.8 mph - N/A   Unknown
5:00 AM -19 °F - -24 °F 66% 30.45 in - NW 3.5 mph - -  
5:00 AM -18.9 °F -29.5 °F -24.0 °F 78% 30.45 in - WNW 3.5 mph - N/A   Unknown
6:00 AM -15.0 °F - -19.7 °F 79% 30.43 in - West 2.3 mph - N/A   Unknown
7:00 AM -15.9 °F -28.4 °F -20.4 °F 80% 30.42 in - WSW 4.6 mph - N/A   Unknown
8:00 AM -16.1 °F -33.7 °F -20.9 °F 79% 30.42 in - West 8.1 mph - N/A   Unknown
9:00 AM -15.9 °F -30.4 °F -20.4 °F 80% 30.41 in - SW 5.8 mph - N/A   Unknown
10:00 AM -15.2 °F -32.6 °F -19.7 °F 80% 30.40 in - WSW 8.1 mph - N/A   Unknown
11:00 AM -15 °F - -19 °F 71% 30.40 in - WSW 6.9 mph - -  
11:00 AM -14.6 °F -32.0 °F -19.1 °F 80% 30.40 in - WSW 8.1 mph - N/A   Unknown
12:00 PM -13.7 °F -32.1 °F -18.2 °F 80% 30.38 in - SW 9.2 mph - N/A   Unknown
1:00 PM -12.1 °F -28.9 °F -16.2 °F 82% 30.37 in - WSW 8.1 mph - N/A   Unknown
2:00 PM -6.2 °F -25.7 °F -9.8 °F 84% 30.35 in - SW 12.7 mph - N/A   Unknown
3:00 PM -10.1 °F -26.5 °F -14.1 °F 83% 30.33 in - South 8.1 mph - N/A   Unknown
4:00 PM -11.7 °F -29.7 °F -15.9 °F 82% 30.31 in - SSW 9.2 mph - N/A   Unknown
5:00 PM -8 °F - -12 °F 72% 30.28 in - SW 13.8 mph - -  
5:00 PM -8.3 °F -29.2 °F -12.1 °F 84% 30.29 in - SW 13.8 mph - N/A   Unknown
6:00 PM -10.1 °F -28.8 °F -14.3 °F 82% 30.26 in - SW 10.4 mph - N/A   Unknown
7:00 PM -9.0 °F -31.7 °F -13.0 °F 83% 30.23 in - SSW 16.1 mph - N/A   Unknown
8:00 PM -8.5 °F -30.2 °F -12.3 °F 83% 30.20 in - SW 15.0 mph - N/A   Unknown
9:00 PM -8.0 °F -31.0 °F -11.7 °F 84% 30.17 in - SW 17.3 mph - N/A   Unknown
10:00 PM -6.5 °F -29.1 °F -10.1 °F 84% 30.14 in - SW 17.3 mph - N/A   Unknown
11:00 PM -3 °F - -7 °F 77% 30.12 in - SW 19.6 mph - -  
11:00 PM -3.1 °F -25.8 °F -6.3 °F 86% 30.12 in - SW 19.6 mph - N/A   Unknown